Погода в Зорино

Россия / Курская область     51°40′15″N   36°12′38″E
темп.,
°C
ветер,
м/с
пор.,
м/с
влажн.,
%
обл.,
%
осадки,
мм/ч
давл.,
гПа
погр.,
м
25 февраля, чт
чт2500:00−8ююз379699 0.2 1032221
03:00−6юз379699 0.3 1030237
06:00−5юз3896100 0.1 1028249
09:00−1зюз51196100 0.1 1026464
12:00+1зюз511100100 0.1 1024344
15:00+2з514100100 0.1 1022439
18:00+2з513100100 0.1 1021321
21:00+2з412100100 0.1 1021282
26 февраля, пт
пт2600:00+2зсз412100100 0.1 1021288
03:00+1з41099100 0.1 1022259
06:00+2з410100100 0.0 1020224
09:00+2з51199100 0.0 1019329
12:00+2зюз614100100 0.0 1017465
15:00+3з61499100 0.1 1016410
18:00+2з51398100 0.1 1014377
21:00+2з51297100 0.1 1014410
27 февраля, сб
сб2700:00+1з51296100 0.0 1012479
03:00+1з41195100 0.0 1011464
06:00+1з51197100 0.1 1009525
09:00+1зсз51197100 0.2 1009572
12:00+1з5119797 0.1 1008661
15:00+1зсз499996 0.3 1008448
18:00+1сз51097100 0.2 1008518
21:00+1сз51095100 0.3 1010572
28 февраля, вс
вс2800:000ссз5119498 0.2 1011746
03:00−3с5118799 0.3 1014721
06:00−4с598692 0.1 1016838
09:00−4с588496 0.1 1018764
12:00−3ссз5784100 0.1 1019742
15:00−3ссз5884100 0.1 1020769
18:00−2с4887100 0.1 1021777
21:00−3с2793100 0.1 1023401
1 марта, пн
пн100:00−3с279394 0.1 1024659
03:00−4ссв269297 0.1 1026485
06:00−4с3684100 0.1 1027601
09:00−3ссз3591100 0.1 1029385
12:00−2с357491 0.1 1031971
15:00−1ссз357778 0.1 1031850
18:00−3сз258672 0.0 1031281
21:00−3з368955 0.0 1032192